Miscellaneous Local Product
Issued by NWS Hastings, NE

Home | Current Version | Previous Version | Graphics & Text | Print | Product List | Glossary On
Versions: 1 2 3 4 5 6 7 8 9 10 11 12 13 14 15 16 17 18 19 20 21 22 23 24 25 26 27 28 29 30 31 32 33 34 35 36 37 38 39 40 41 42 43 44 45 46 47 48 49 50
409
AXUS43 KGID 281902
MISGRI

GID CWA HOURLY WEATHER ROUNDUP
NATIONAL WEATHER SERVICE HASTINGS NE
200 PM CDT THU JUL 28 2016

NOTE: "FAIR" INDICATES FEW OR NO CLOUDS BELOW 12,000 FEET WITH NO
SIGNIFICANT WEATHER AND/OR OBSTRUCTIONS TO VISIBILITY.

...SOUTH CENTRAL NEBRASKA...

CITY           SKY/WX    TMP DP  RH WIND       PRES   REMARKS
GRAND ISLAND   MOSUNNY   83  62  49 E8        30.04F
HASTINGS       CLOUDY    81  66  60 E9        30.04F
ORD            PTSUNNY   81  63  54 NE10      30.06S
YORK           MOSUNNY   81  64  57 E9        30.03F
AURORA         MOSUNNY   81  64  54 E6        30.04F
LEXINGTON      LGT RAIN  70  65  82 N9G21     30.13R
HOLDREGE       CLOUDY    75  65  69 E7        30.04S
HEBRON         MOSUNNY   84  65  51 NE7       30.02S

...NEBRASKA PANHANDLE...

CITY           SKY/WX    TMP DP  RH WIND       PRES   REMARKS
CHADRON        SUNNY     72  58  61 VRB3      30.15S
ALLIANCE       CLOUDY    69  58  67 VRB3      30.17F
SCOTTSBLUFF    SUNNY     72  57  59 E5        30.19R
SIDNEY         CLOUDY    71  55  56 E17       30.20F

...WESTERN AND NORTH CENTRAL NEBRASKA...

CITY           SKY/WX    TMP DP  RH WIND       PRES   REMARKS
VALENTINE      PTSUNNY   73  63  70 S6        30.12F
AINSWORTH      PTSUNNY   72  65  80 CALM      30.13F
ONEILL         PTSUNNY   77  62  58 N6        30.09F
BROKEN BOW     CLOUDY    75  67  76 N6        30.12R
IMPERIAL       TSTM      63  61  93 N29G44    30.18R VSB 1/2
NORTH PLATTE   LGT RAIN  67  63  87 N7        30.16R
MCCOOK         CLOUDY    79  65  62 E8        30.05F

...EASTERN NEBRASKA...

CITY           SKY/WX    TMP DP  RH WIND       PRES   REMARKS
NORFOLK        CLOUDY    80  59  48 N13       30.05F
SO SIOUX CITY  PTSUNNY   81  61  50 NW9       30.02F
TEKAMAH        SUNNY     84  60  44 NW9       30.01F
COLUMBUS       MOSUNNY   82  63  51 N6        30.04F
ALBION         CLOUDY    78  65  63 NE8       30.06F
OMAHA EPPLEY   MOSUNNY   84  65  52 N14       30.01S
OFFUTT AFB     SUNNY     83  63  51 N8        30.00
MILLARD        MOSUNNY   83  65  55 NW8       30.01S
LINCOLN        SUNNY     86  62  44 N12       30.02F
NEBRASKA CITY  MOSUNNY   82  65  56 N7        30.01S
BEATRICE       PTSUNNY   83  66  55 NE8G18    30.00F
FALLS CITY     SUNNY     86  67  52 N10       29.98F

...NORTHERN KANSAS...

CITY           SKY/WX    TMP DP  RH WIND       PRES   REMARKS
GOODLAND       SUNNY     80  62  54 E10       30.10F
HILL CITY      CLOUDY    82  67  60 NW3       30.07F
NORTON         CLEAR     82  57  42 SE6       30.03F
SMITH CENTER   MOSUNNY   88  64  45 N8        30.01F
BELOIT         SUNNY     88  66  48 NE7       29.99F HX  90
HAYS           CLOUDY    84  64  51 N5        30.06R
RUSSELL        CLOUDY    89  67  47 NE9       30.02S HX  92
CONCORDIA      SUNNY     88  63  43 NE8       30.00F
SALINA         MOSUNNY   91  66  43 N12       29.99F HX  93
TOPEKA         SUNNY     91  69  48 NE10      29.95F HX  96



USA.gov is the U.S. government's official web portal to all federal, state and local government web resources and services.